Year,Month,Day,Hour,Minute,Value (Times are PST for windgust in km/hr)
2018,02,13,01,31,1.60
2018,02,13,01,32,4.80
2018,02,13,01,33,1.60
2018,02,13,01,50,1.60
2018,02,13,01,51,1.60
2018,02,13,03,27,1.60
2018,02,13,03,28,1.60
2018,02,13,06,20,3.20
2018,02,13,06,21,3.20
2018,02,13,07,07,1.60
2018,02,13,07,11,3.20
2018,02,13,07,17,3.20
2018,02,13,07,28,4.80
2018,02,13,07,29,3.20
2018,02,13,07,30,3.20
2018,02,13,07,44,4.80
2018,02,13,07,45,3.20
2018,02,13,07,46,1.60
2018,02,13,07,53,1.60
2018,02,13,09,14,4.80
2018,02,13,09,15,4.80
2018,02,13,09,16,3.20
2018,02,13,09,18,6.40
2018,02,13,09,19,8.10
2018,02,13,09,20,3.20
2018,02,13,09,21,8.10
2018,02,13,09,22,4.80
2018,02,13,09,23,3.20
2018,02,13,09,24,4.80
2018,02,13,09,25,8.10
2018,02,13,09,26,8.10
2018,02,13,09,27,4.80
2018,02,13,09,28,4.80
2018,02,13,09,29,4.80
2018,02,13,09,36,1.60
2018,02,13,09,37,3.20
2018,02,13,09,38,3.20
2018,02,13,09,39,1.60
2018,02,13,09,43,4.80
2018,02,13,09,44,3.20
2018,02,13,10,13,1.60
2018,02,13,10,18,8.10
2018,02,13,10,19,6.40
2018,02,13,10,22,1.60
2018,02,13,10,23,8.10
2018,02,13,10,24,4.80
2018,02,13,10,25,6.40
2018,02,13,10,26,4.80
2018,02,13,10,27,6.40
2018,02,13,10,28,6.40
2018,02,13,10,29,8.10
2018,02,13,10,30,6.40
2018,02,13,10,41,9.60
2018,02,13,10,42,8.10
2018,02,13,10,43,8.10
2018,02,13,10,44,8.10
2018,02,13,10,45,8.10
2018,02,13,10,46,6.40
2018,02,13,10,47,8.10
2018,02,13,10,49,8.10
2018,02,13,10,50,6.40
2018,02,13,10,51,4.80
2018,02,13,10,52,6.40
2018,02,13,10,53,8.10
2018,02,13,10,54,6.40
2018,02,13,10,55,6.40
2018,02,13,10,56,6.40
2018,02,13,10,57,6.40
2018,02,13,10,58,9.60
2018,02,13,10,59,8.10
2018,02,13,11,00,8.10
2018,02,13,11,01,6.40
2018,02,13,11,02,9.60
2018,02,13,11,03,6.40
2018,02,13,11,04,8.10
2018,02,13,11,05,6.40
2018,02,13,11,06,6.40
2018,02,13,11,07,6.40
2018,02,13,11,08,4.80
2018,02,13,11,09,6.40
2018,02,13,11,10,8.10
2018,02,13,11,11,6.40
2018,02,13,11,12,6.40
2018,02,13,11,13,8.10
2018,02,13,11,14,6.40
2018,02,13,11,15,9.60
2018,02,13,11,16,8.10
2018,02,13,11,17,6.40
2018,02,13,11,18,6.40
2018,02,13,11,19,8.10
2018,02,13,11,20,8.10
2018,02,13,11,21,8.10
2018,02,13,11,22,6.40
2018,02,13,11,23,4.80
2018,02,13,11,24,4.80
2018,02,13,11,25,6.40
2018,02,13,11,26,8.10
2018,02,13,11,27,4.80
2018,02,13,11,28,1.60
2018,02,13,11,29,6.40
2018,02,13,11,30,6.40
2018,02,13,11,31,6.40
2018,02,13,11,32,6.40
2018,02,13,11,33,9.60
2018,02,13,11,34,9.60
2018,02,13,11,35,6.40
2018,02,13,11,36,4.80
2018,02,13,11,37,11.30
2018,02,13,11,38,8.10
2018,02,13,11,39,11.30
2018,02,13,11,40,8.10
2018,02,13,11,41,8.10
2018,02,13,11,42,9.60
2018,02,13,11,43,12.90
2018,02,13,11,44,12.90
2018,02,13,11,45,14.50
2018,02,13,11,46,12.90
2018,02,13,11,47,11.30
2018,02,13,11,48,11.30
2018,02,13,11,49,12.90
2018,02,13,11,50,11.30
2018,02,13,11,51,11.30
2018,02,13,11,52,6.40
2018,02,13,11,53,9.60
2018,02,13,11,54,8.10
2018,02,13,11,55,9.60
2018,02,13,11,56,11.30
2018,02,13,11,57,11.30
2018,02,13,11,58,9.60
2018,02,13,11,59,9.60
2018,02,13,12,00,9.60
2018,02,13,12,01,11.30
2018,02,13,12,02,11.30
2018,02,13,12,03,8.10
2018,02,13,12,04,11.30
2018,02,13,12,05,12.90
2018,02,13,12,06,12.90
2018,02,13,12,07,11.30
2018,02,13,12,08,8.10
2018,02,13,12,09,14.50
2018,02,13,12,10,14.50
2018,02,13,12,11,14.50
2018,02,13,12,12,14.50
2018,02,13,12,13,11.30
2018,02,13,12,14,14.50
2018,02,13,12,15,14.50
2018,02,13,12,16,8.10
2018,02,13,12,17,14.50
2018,02,13,12,18,8.10
2018,02,13,12,19,14.50
2018,02,13,12,20,11.30
2018,02,13,12,21,12.90
2018,02,13,12,22,12.90
2018,02,13,12,23,12.90
2018,02,13,12,24,8.10
2018,02,13,12,25,11.30
2018,02,13,12,26,12.90
2018,02,13,12,27,11.30
2018,02,13,12,28,12.90
2018,02,13,12,29,11.30
2018,02,13,12,30,11.30
2018,02,13,12,31,12.90
2018,02,13,12,32,12.90
2018,02,13,12,33,9.60
2018,02,13,12,34,11.30
2018,02,13,12,35,4.80
2018,02,13,12,36,9.60
2018,02,13,12,37,9.60
2018,02,13,12,38,16.10
2018,02,13,12,39,11.30
2018,02,13,12,40,11.30
2018,02,13,12,41,11.30
2018,02,13,12,42,11.30
2018,02,13,12,43,11.30
2018,02,13,12,44,11.30
2018,02,13,12,45,11.30
2018,02,13,12,46,11.30
2018,02,13,12,47,11.30
2018,02,13,12,48,11.30
2018,02,13,12,49,16.10
2018,02,13,12,50,12.90
2018,02,13,12,51,12.90
2018,02,13,12,52,12.90
2018,02,13,12,53,12.90
2018,02,13,12,54,11.30
2018,02,13,12,55,11.30
2018,02,13,12,56,11.30
2018,02,13,12,57,12.90
2018,02,13,12,58,9.60
2018,02,13,12,59,9.60
2018,02,13,13,00,12.90
2018,02,13,13,01,12.90
2018,02,13,13,02,12.90
2018,02,13,13,03,12.90
2018,02,13,13,04,12.90
2018,02,13,13,05,11.30
2018,02,13,13,06,11.30
2018,02,13,13,07,11.30
2018,02,13,13,08,8.10
2018,02,13,13,09,11.30
2018,02,13,13,10,9.60
2018,02,13,13,11,12.90
2018,02,13,13,12,12.90
2018,02,13,13,13,11.30
2018,02,13,13,14,16.10
2018,02,13,13,15,11.30
2018,02,13,13,16,12.90
2018,02,13,13,17,11.30
2018,02,13,13,18,11.30
2018,02,13,13,19,14.50
2018,02,13,13,20,11.30
2018,02,13,13,21,16.10
2018,02,13,13,22,11.30
2018,02,13,13,23,11.30
2018,02,13,13,24,14.50
2018,02,13,13,25,17.70
2018,02,13,13,26,16.10
2018,02,13,13,27,16.10
2018,02,13,13,28,12.90
2018,02,13,13,29,12.90
2018,02,13,13,30,14.50
2018,02,13,13,31,14.50
2018,02,13,13,32,17.70
2018,02,13,13,33,11.30
2018,02,13,13,34,16.10
2018,02,13,13,35,14.50
2018,02,13,13,36,19.30
2018,02,13,13,37,12.90
2018,02,13,13,38,16.10
2018,02,13,13,39,14.50
2018,02,13,13,40,11.30
2018,02,13,13,41,11.30
2018,02,13,13,42,9.60
2018,02,13,13,43,16.10
2018,02,13,13,44,11.30
2018,02,13,13,45,9.60
2018,02,13,13,46,9.60
2018,02,13,13,47,12.90
2018,02,13,13,48,12.90
2018,02,13,13,49,8.10
2018,02,13,13,50,11.30
2018,02,13,13,51,16.10
2018,02,13,13,52,11.30
2018,02,13,13,53,9.60
2018,02,13,13,54,9.60
2018,02,13,13,55,11.30
2018,02,13,13,56,9.60
2018,02,13,13,57,8.10
2018,02,13,13,58,11.30
2018,02,13,14,00,9.60
2018,02,13,14,01,16.10
2018,02,13,14,02,11.30
2018,02,13,14,03,9.60
2018,02,13,14,05,6.40
2018,02,13,14,06,14.50
2018,02,13,14,07,11.30
2018,02,13,14,08,12.90
2018,02,13,14,09,12.90
2018,02,13,14,10,14.50
2018,02,13,14,11,17.70
2018,02,13,14,12,12.90
2018,02,13,14,13,20.90
2018,02,13,14,14,16.10
2018,02,13,14,15,16.10
2018,02,13,14,16,20.90
2018,02,13,14,17,17.70
2018,02,13,14,18,12.90
2018,02,13,14,19,20.90
2018,02,13,14,20,14.50
2018,02,13,14,21,12.90
2018,02,13,14,22,9.60
2018,02,13,14,23,11.30
2018,02,13,14,24,14.50
2018,02,13,14,25,11.30
2018,02,13,14,26,11.30
2018,02,13,14,27,8.10
2018,02,13,14,28,4.80
2018,02,13,14,29,8.10
2018,02,13,14,30,11.30
2018,02,13,14,31,9.60
2018,02,13,14,32,9.60
2018,02,13,14,33,12.90
2018,02,13,14,34,12.90
2018,02,13,14,35,12.90
2018,02,13,14,36,11.30
2018,02,13,14,37,12.90
2018,02,13,14,38,16.10
2018,02,13,14,39,12.90
2018,02,13,14,40,6.40
2018,02,13,14,41,12.90
2018,02,13,14,42,9.60
2018,02,13,14,43,16.10
2018,02,13,14,44,20.90
2018,02,13,14,45,12.90
2018,02,13,14,46,20.90
2018,02,13,14,47,11.30
2018,02,13,14,48,8.10
2018,02,13,14,49,6.40
2018,02,13,14,50,14.50
2018,02,13,14,51,11.30
2018,02,13,14,52,6.40
2018,02,13,14,53,16.10
2018,02,13,14,54,11.30
2018,02,13,14,55,8.10
2018,02,13,14,56,11.30
2018,02,13,14,57,9.60
2018,02,13,14,58,6.40
2018,02,13,14,59,11.30
2018,02,13,15,00,8.10
2018,02,13,15,01,8.10
2018,02,13,15,02,11.30
2018,02,13,15,03,9.60
2018,02,13,15,04,6.40
2018,02,13,15,05,6.40
2018,02,13,15,06,6.40
2018,02,13,15,07,19.30
2018,02,13,15,08,14.50
2018,02,13,15,09,9.60
2018,02,13,15,10,17.70
2018,02,13,15,11,9.60
2018,02,13,15,12,11.30
2018,02,13,15,13,12.90
2018,02,13,15,14,11.30
2018,02,13,15,15,6.40
2018,02,13,15,16,8.10
2018,02,13,15,17,6.40
2018,02,13,15,18,9.60
2018,02,13,15,19,11.30
2018,02,13,15,20,9.60
2018,02,13,15,22,9.60
2018,02,13,15,23,9.60
2018,02,13,15,24,8.10
2018,02,13,15,25,11.30
2018,02,13,15,26,8.10
2018,02,13,15,27,6.40
2018,02,13,15,28,1.60
2018,02,13,15,29,12.90
2018,02,13,15,30,9.60
2018,02,13,15,31,6.40
2018,02,13,15,32,11.30
2018,02,13,15,33,11.30
2018,02,13,15,34,4.80
2018,02,13,15,35,14.50
2018,02,13,15,36,9.60
2018,02,13,15,37,9.60
2018,02,13,15,38,9.60
2018,02,13,15,39,14.50
2018,02,13,15,40,11.30
2018,02,13,15,41,16.10
2018,02,13,15,42,11.30
2018,02,13,15,43,14.50
2018,02,13,15,44,9.60
2018,02,13,15,45,4.80
2018,02,13,15,46,11.30
2018,02,13,15,47,9.60
2018,02,13,15,49,8.10
2018,02,13,15,50,8.10
2018,02,13,15,51,6.40
2018,02,13,15,52,9.60
2018,02,13,15,53,6.40
2018,02,13,15,54,6.40
2018,02,13,15,55,6.40
2018,02,13,15,56,8.10
2018,02,13,15,57,6.40
2018,02,13,15,59,4.80
2018,02,13,16,00,4.80
2018,02,13,16,01,1.60
2018,02,13,16,02,4.80
2018,02,13,16,03,8.10
2018,02,13,16,04,12.90
2018,02,13,16,05,9.60
2018,02,13,16,06,8.10
2018,02,13,16,07,6.40
2018,02,13,16,08,8.10
2018,02,13,16,10,8.10
2018,02,13,16,11,6.40
2018,02,13,16,13,1.60
2018,02,13,16,14,1.60
2018,02,13,16,17,6.40
2018,02,13,16,18,4.80
2018,02,13,16,19,1.60
2018,02,13,16,20,4.80
2018,02,13,16,21,3.20
2018,02,13,16,22,9.60
2018,02,13,16,23,12.90
2018,02,13,16,24,9.60
2018,02,13,16,25,8.10
2018,02,13,16,26,9.60
2018,02,13,16,27,6.40
2018,02,13,16,28,1.60
2018,02,13,16,29,6.40
2018,02,13,16,30,3.20
2018,02,13,16,31,1.60
2018,02,13,16,32,1.60
2018,02,13,16,36,8.10
2018,02,13,16,37,3.20
2018,02,13,16,38,4.80
2018,02,13,16,40,1.60
2018,02,13,16,41,9.60
2018,02,13,16,42,14.50
2018,02,13,16,43,3.20
2018,02,13,16,44,4.80
2018,02,13,16,45,1.60
2018,02,13,16,46,6.40
2018,02,13,16,47,9.60
2018,02,13,16,48,9.60
2018,02,13,16,49,6.40
2018,02,13,16,50,9.60
2018,02,13,16,51,3.20
2018,02,13,16,53,4.80
2018,02,13,16,54,9.60
2018,02,13,16,56,8.10
2018,02,13,16,57,9.60
2018,02,13,16,58,9.60
2018,02,13,16,59,8.10
2018,02,13,17,00,1.60
2018,02,13,17,01,6.40
2018,02,13,17,02,8.10
2018,02,13,17,03,3.20
2018,02,13,17,04,9.60
2018,02,13,17,05,6.40
2018,02,13,17,06,4.80
2018,02,13,17,07,9.60
2018,02,13,17,08,6.40
2018,02,13,17,09,8.10
2018,02,13,17,10,6.40
2018,02,13,17,15,1.60
2018,02,13,17,18,4.80
2018,02,13,17,22,8.10
2018,02,13,17,29,4.80
2018,02,13,17,30,4.80
2018,02,13,17,32,9.60
2018,02,13,17,34,1.60
2018,02,13,17,38,3.20
2018,02,13,17,43,4.80
2018,02,13,17,44,3.20
2018,02,13,17,48,6.40
2018,02,13,17,49,1.60
2018,02,13,17,52,8.10
2018,02,13,17,53,6.40
2018,02,13,17,55,1.60
2018,02,13,17,56,9.60
2018,02,13,17,57,11.30
2018,02,13,17,58,1.60
2018,02,13,18,00,6.40
2018,02,13,18,01,6.40
2018,02,13,18,03,4.80
2018,02,13,18,04,4.80
2018,02,13,18,05,6.40
2018,02,13,18,06,11.30
2018,02,13,18,07,8.10
2018,02,13,18,08,4.80
2018,02,13,18,09,6.40
2018,02,13,18,10,8.10
2018,02,13,18,13,3.20
2018,02,13,18,15,6.40
2018,02,13,18,19,1.60
2018,02,13,18,20,6.40
2018,02,13,18,21,6.40
2018,02,13,18,22,4.80
2018,02,13,18,25,4.80
2018,02,13,18,26,6.40
2018,02,13,18,29,6.40
2018,02,13,18,30,8.10
2018,02,13,18,31,8.10
2018,02,13,18,32,6.40
2018,02,13,18,33,4.80
2018,02,13,18,34,6.40
2018,02,13,18,35,8.10
2018,02,13,18,36,8.10
2018,02,13,18,37,8.10
2018,02,13,18,38,8.10
2018,02,13,18,39,9.60
2018,02,13,18,40,3.20
2018,02,13,18,41,4.80
2018,02,13,18,42,4.80
2018,02,13,18,43,6.40
2018,02,13,18,44,3.20
2018,02,13,18,45,4.80
2018,02,13,18,46,11.30
2018,02,13,18,47,1.60
2018,02,13,18,48,17.70
2018,02,13,18,49,16.10
2018,02,13,18,50,9.60
2018,02,13,18,51,8.10
2018,02,13,18,52,1.60
2018,02,13,18,53,12.90
2018,02,13,18,54,12.90
2018,02,13,18,55,12.90
2018,02,13,18,56,11.30
2018,02,13,18,57,6.40
2018,02,13,18,58,11.30
2018,02,13,18,59,6.40
2018,02,13,19,00,8.10
2018,02,13,19,01,11.30
2018,02,13,19,02,16.10
2018,02,13,19,03,6.40
2018,02,13,19,04,14.50
2018,02,13,19,05,8.10
2018,02,13,19,06,14.50
2018,02,13,19,07,8.10
2018,02,13,19,08,4.80
2018,02,13,19,09,4.80
2018,02,13,19,10,11.30
2018,02,13,19,11,11.30
2018,02,13,19,12,4.80
2018,02,13,19,14,1.60
2018,02,13,19,15,8.10
2018,02,13,19,16,12.90
2018,02,13,19,17,6.40
2018,02,13,19,18,9.60
2018,02,13,19,19,12.90
2018,02,13,19,20,4.80
2018,02,13,19,21,6.40
2018,02,13,19,22,6.40
2018,02,13,19,23,11.30
2018,02,13,19,24,22.50
2018,02,13,19,25,12.90
2018,02,13,19,26,12.90
2018,02,13,19,27,9.60
2018,02,13,19,28,12.90
2018,02,13,19,29,12.90
2018,02,13,19,30,8.10
2018,02,13,19,31,9.60
2018,02,13,19,32,6.40
2018,02,13,19,35,3.20
2018,02,13,19,36,6.40
2018,02,13,19,44,3.20
2018,02,13,19,46,11.30
2018,02,13,19,47,8.10
2018,02,13,19,48,4.80
2018,02,13,19,49,8.10
2018,02,13,19,50,8.10
2018,02,13,19,51,8.10
2018,02,13,19,52,6.40
2018,02,13,19,58,8.10
2018,02,13,19,59,6.40
2018,02,13,20,48,1.60
2018,02,13,20,49,4.80
2018,02,13,20,50,6.40
2018,02,13,20,51,1.60
2018,02,13,21,04,8.10
2018,02,13,21,05,9.60
2018,02,13,21,06,4.80
2018,02,13,21,07,4.80
2018,02,13,21,08,8.10
2018,02,13,21,09,3.20
2018,02,13,21,10,1.60
2018,02,13,21,11,1.60
2018,02,13,21,14,6.40
2018,02,13,21,15,6.40
2018,02,13,21,16,4.80
2018,02,13,21,17,6.40
2018,02,13,21,18,4.80
2018,02,13,21,19,6.40
2018,02,13,21,22,1.60
2018,02,13,21,24,6.40
2018,02,13,21,25,8.10
2018,02,13,21,26,1.60
2018,02,13,21,27,1.60
2018,02,13,21,28,3.20
2018,02,13,21,30,6.40
2018,02,13,21,31,6.40
2018,02,13,21,32,1.60
2018,02,13,21,34,3.20
2018,02,13,21,36,6.40
2018,02,13,21,40,3.20
2018,02,13,21,43,6.40
2018,02,13,21,44,8.10
2018,02,13,21,46,6.40
2018,02,13,21,47,4.80
2018,02,13,21,48,12.90
2018,02,13,21,49,9.60
2018,02,13,21,50,11.30
2018,02,13,21,51,6.40
2018,02,13,21,52,8.10
2018,02,13,21,53,4.80
2018,02,13,21,57,6.40
2018,02,13,21,58,6.40
2018,02,13,21,59,12.90
2018,02,13,22,00,11.30
2018,02,13,22,01,4.80
2018,02,13,22,02,6.40
2018,02,13,22,04,9.60
2018,02,13,22,05,11.30
2018,02,13,22,07,4.80
2018,02,13,22,08,6.40
2018,02,13,22,09,4.80
2018,02,13,22,10,4.80
2018,02,13,22,11,4.80
2018,02,13,22,14,6.40
2018,02,13,22,15,6.40
2018,02,13,22,17,4.80
2018,02,13,22,18,6.40
2018,02,13,22,19,12.90
2018,02,13,22,20,14.50
2018,02,13,22,21,14.50
2018,02,13,22,22,8.10
2018,02,13,22,23,11.30
2018,02,13,22,24,12.90
2018,02,13,22,25,9.60
2018,02,13,22,26,11.30
2018,02,13,22,27,14.50
2018,02,13,22,28,12.90
2018,02,13,22,29,12.90
2018,02,13,22,30,9.60
2018,02,13,22,31,11.30
2018,02,13,22,32,6.40
2018,02,13,22,33,8.10
2018,02,13,22,34,12.90
2018,02,13,22,35,9.60
2018,02,13,22,36,8.10
2018,02,13,22,37,8.10
2018,02,13,22,38,8.10
2018,02,13,22,39,8.10
2018,02,13,22,40,4.80
2018,02,13,22,41,4.80
2018,02,13,22,42,3.20
2018,02,13,22,43,3.20
2018,02,13,23,04,3.20
2018,02,13,23,06,4.80
2018,02,13,23,07,6.40
2018,02,13,23,08,6.40
2018,02,13,23,09,4.80
2018,02,13,23,10,4.80
2018,02,13,23,15,6.40
2018,02,13,23,16,3.20
2018,02,13,23,24,3.20
